User: anonymous   Login
Location: Mentone
(34.5413°N, 85.5351°W)
Time: 00:25:43
(UTC-05:00)
Language:

ADEOS Rocket - Orbit

View from above orbital plane
View from above orbital plane
View from above satellite
View from above satellite

Ground track
Ground track

The orbit data is extracted from the following two-line orbital elements,

1 24279U 96046C   17086.90568635 +.00000030 +00000-0 +80415-4 0  9998
2 24279 098.7447 040.9413 0300678 135.7485 293.4681 13.47078276013027
Epoch (UTC): 27 March 2017 21:44:11
Eccentricity: 0.0300678
inclination: 98.7447°
perigee height: 858 km
apogee height: 1307 km
right ascension of ascending node: 40.9413°
argument of perigee: 135.7485°
revolutions per day: 13.47078276
mean anomaly at epoch: 293.4681°
orbit number at epoch: 1302

The dashed part of the orbit path shows where the satellite is in the earth's shadow,  

DLR